This is the latest recevied weather packets stored in our database for station/object N0EDB-13. If no packets are shown the sender has not sent any weather packets the latest 10 day(s).
| Time | Temp. | Humidity | Pressure | Rain* | Wind** | Luminosity | Snow |
|---|---|---|---|---|---|---|---|
| 1777858630 | 19.44° C | 26% | 1468.2 hPa | 0 mm | - | 9 W/m² | - |
| 1777858328 | 19.44° C | 27% | 1468 hPa | 0 mm | - | 11 W/m² | - |
| 1777858028 | 20° C | 27% | 1467.6 hPa | 0 mm | - | 13 W/m² | - |
| 1777857728 | 20° C | 27% | 1467.2 hPa | 0 mm | - | 15 W/m² | - |
| 1777857426 | 20° C | 27% | 1466.9 hPa | 0 mm | - | 18 W/m² | - |
| 1777857125 | 20° C | 27% | 1466.7 hPa | 0 mm | - | 20 W/m² | - |
| 1777856825 | 20.56° C | 26% | 1466.4 hPa | 0 mm | - | 29 W/m² | - |
| 1777856524 | 20.56° C | 26% | 1466.2 hPa | 0 mm | - | 25 W/m² | - |
| 1777856223 | 20.56° C | 26% | 1465.9 hPa | 0 mm | - | 30 W/m² | - |
| 1777855922 | 20.56° C | 25% | 1465.6 hPa | 0 mm | - | 35 W/m² | - |
| 1777855621 | 20.56° C | 23% | 1465.5 hPa | 0 mm | - | 39 W/m² | - |
| 1777855320 | 20.56° C | 23% | 1465.5 hPa | 0 mm | - | 33 W/m² | - |
| 1777855020 | 20.56° C | 23% | 1465.5 hPa | 0 mm | - | 33 W/m² | - |
| 1777854719 | 20.56° C | 23% | 1465.6 hPa | 0 mm | - | 37 W/m² | - |
| 1777854419 | 21.11° C | 22% | 1465.6 hPa | 0 mm | - | 43 W/m² | - |
| 1777854118 | 21.11° C | 22% | 1465.4 hPa | 0 mm | - | 48 W/m² | - |
| 1777853818 | 21.11° C | 22% | 1465.1 hPa | 0 mm | - | 48 W/m² | - |
| 1777853517 | 21.11° C | 22% | 1465.1 hPa | 0 mm | - | 50 W/m² | - |
| 1777853217 | 21.11° C | 22% | 1465.1 hPa | 0 mm | - | 50 W/m² | - |
| 1777852916 | 21.11° C | 21% | 1465.1 hPa | 0 mm | - | 51 W/m² | - |
| 1777852616 | 21.11° C | 20% | 1465 hPa | 0 mm | - | 48 W/m² | - |
| 1777852316 | 21.11° C | 20% | 1465.1 hPa | 0 mm | - | 42 W/m² | - |
| 1777852016 | 21.11° C | 20% | 1465.3 hPa | 0 mm | - | 47 W/m² | - |
| 1777851715 | 21.11° C | 21% | 1465.1 hPa | 0 mm | - | 56 W/m² | - |
| 1777851414 | 21.11° C | 21% | 1465.4 hPa | 0 mm | - | 56 W/m² | - |
* Rain latest hour (hover to see other rain measurements)
** Current wind speed in m/s (hover to see current wind gust speed)